Simultaneous Nadir Overpasses (SNOs) Predictions

Prediction of SNOs between LANDSAT-8 and METOP-B Satellite Orbit:

Table of predicted SNOs for the next 14.0 days since TLE Epoch: 9/12/2025
Index Date (LANDSAT-8) Time (LANDSAT-8) Lat,Lon (LANDSAT-8) SZA (LANDSAT-8 ) Date (METOP-B) Time (METOP-B) Lat,Lon (METOP-B) SZA (METOP-B ) Distance(km) Time Diff (sec)
1 09/14/2025 01:26:42 81.43,-156.17 80.74 09/14/2025 01:25:59 81.42,-156.00 80.74 2.92 43
2 09/14/2025 02:16:09 -81.42, 11.38 99.26 09/14/2025 02:16:40 -81.42, 11.40 99.25 0.28 31
3 09/16/2025 21:00:59 81.42, -89.99 81.81 09/16/2025 21:00:27 81.42, -89.97 81.80 0.95 32
4 09/16/2025 21:50:25 -81.43, 77.98 98.14 09/16/2025 21:51:07 -81.42, 77.87 98.13 1.89 42
5 09/19/2025 16:35:16 81.42, -23.47 82.93 09/19/2025 16:34:55 81.42, -23.57 82.92 1.64 21
6 09/19/2025 17:24:43 -81.42, 144.13 97.06 09/19/2025 17:25:35 -81.42, 144.31 97.01 3.08 52
7 09/22/2025 12:09:33 81.42, 42.99 84.05 09/22/2025 12:09:22 81.42, 43.19 84.07 3.26 11
8 09/22/2025 12:59:00 -81.42,-149.38 95.94 09/22/2025 13:00:03 -81.42,-149.29 95.90 1.51 63
9 09/25/2025 06:54:23 -81.42, -58.27 94.86 09/25/2025 06:53:10 -81.42, -58.28 94.89 0.53 73
10 09/25/2025 07:43:49 81.42, 109.41 85.17 09/25/2025 07:43:49 81.42, 109.51 85.18 1.75 0



Historial Predications of SNOs between LANDSAT-8 and METOP-B
